Location: Unspecified
(0.0000°N, 0.0000°E)
Time: 05:26:00
(UTC+00:00)

RS-6 - Pass Details

Date: 03 October 2022
Orbit: 1636 x 1664 km, 83.0° (Epoch: 27 November)

Event Time Altitude Azimuth Distance (km) Brightness Sun altitude
Rises 03:25:43 0° 167° (SSE) 4,896 ? -35.8°
Reaches altitude 10° 03:28:58 10° 160° (SSE) 3,903 ? -35.0°
Maximum altitude 03:37:45 42° 92° (E) 2,203 ? -32.8°
Drops below altitude 10° 03:46:25 10° 25° (NNE) 3,873 ? -30.6°
Sets 03:49:36 0° 19° (NNE) 4,855 ? -29.8°
